#timestamp,LO_Frequency,Hit,StdDev 
1550656815.5,286047001.3,N
1550656835.3,286047001.2,N
1550656855.1,286046997.1,N
1550656875.9,286046997.4,N
1550656895.7,286046997.3,N
1550656915.5,286046997.0,N
1550656935.4,286046999.5,N
1550656955.2,286046996.7,N
1550656975.1,286046996.5,N
1550656976.0,286046996.5,N
1550656995.8,286046998.5,N
1550657015.6,286047000.8,N
1550657035.5,286047000.6,N
1550657055.3,286047000.6,N
1550657075.1,286047001.5,N
1550657095.9,286047002.0,N
1550657115.7,286047000.0,N
1550657135.6,286047002.7,N
1550657155.4,286046999.7,N
1550657175.2,286047000.0,N
1550657195.1,286047000.5,N
1550657196.0,286047000.5,N
1550657215.8,286047000.6,N
1550657235.6,286047000.4,N
1550657255.5,286047000.6,N
1550657275.3,286047000.5,N
1550657295.2,286046998.8,N
1550657315.9,286046999.5,N
1550657335.7,286046997.3,N
1550657355.6,286046996.5,N
1550657375.4,286047000.9,N
1550657395.2,286047001.9,N
1550657415.1,286047002.9,N
1550657416.0,286047002.9,N
1550657435.8,286047003.1,N
1550657455.7,286047003.9,N
1550657475.5,286046999.8,N
1550657495.3,286046998.3,N
1550657515.2,286046998.2,N
1550657535.0,286047000.4,N
1550657535.9,286047000.4,N
1550657555.8,286047002.6,N
1550657575.6,286047004.2,N
1550657595.4,286047004.2,N
1550657615.3,286047005.5,N
1550657635.1,286047003.4,N
1550657655.9,286047003.7,N
1550657675.7,286047003.8,N
1550657695.5,286047005.4,N
1550657715.4,286047005.5,N
1550657735.2,286047003.5,N
1550657755.0,286047003.9,N
1550657756.0,286047003.9,N
1550657775.8,286047005.6,N
1550657795.6,286047005.9,N
1550657815.5,286047005.7,N
1550657835.3,286047006.5,N
1550657855.1,286047006.1,N
1550657875.9,286047004.9,N
1550657895.7,286047005.4,N
1550657915.6,286047004.7,N
1550657935.4,286047005.2,N
1550657955.2,286047009.1,Y
1550657975.1,286047002.0,P
1550657976.0,286047002.0,N
1550657995.8,286046999.9,N
1550658015.6,286046999.1,N
1550658035.5,286046998.8,N
1550658055.3,286046999.0,N
1550658075.2,286046998.4,N
1550658095.9,286047000.8,N
1550658115.7,286046997.0,N
1550658135.6,286046995.5,N
1550658155.4,286046995.5,N
1550658175.2,286046996.3,N
1550658195.1,286046995.7,N
1550658196.0,286046995.7,N
1550658215.8,286046995.1,N
1550658235.7,286046997.6,N
1550658255.5,286046997.2,N
1550658275.3,286046999.5,N
1550658295.2,286046998.8,N
1550658315.0,286046998.2,N
1550658315.9,286046998.2,N
1550658335.8,286047001.2,N
1550658355.6,286046996.6,N
1550658375.4,286046997.9,N
1550658395.3,286046997.8,N
1550658415.1,286046999.5,N
1550658435.8,286046997.5,N
1550658455.7,286046997.6,N
1550658475.5,286046999.3,N
1550658495.3,286046996.5,N
1550658515.2,286046997.2,N
1550658535.0,286046998.5,N
1550658535.9,286046998.5,N
1550658555.8,286046996.9,N
1550658575.6,286046997.9,N
1550658595.4,286046995.7,N
1550658615.3,286046996.0,N
1550658635.1,286046995.7,N
1550658655.9,286046996.2,N
1550658675.7,286046997.3,N
1550658695.5,286046999.5,N
1550658715.4,286046999.0,N
1550658735.2,286047001.8,N
1550658755.0,286047002.3,N
1550658755.9,286047002.3,N
1550658775.8,286046999.8,N
1550658795.6,286047000.5,N
1550658815.5,286046998.5,N
1550658835.3,286047000.9,N
1550658855.1,286047002.4,N
1550658875.9,286046999.9,N
1550658895.7,286046999.3,N
1550658915.5,286046997.7,N
1550658935.4,286046999.5,N
1550658955.2,286046997.9,N
1550658975.1,286046997.3,N
1550658976.0,286046997.3,N
1550658995.8,286046997.0,N
1550659015.3,286046999.3,N
1550659035.1,286046998.5,N
1550659055.9,286046999.9,N
1550659075.7,286047001.0,N
1550659095.5,286046999.3,N
1550659115.4,286046997.6,N
1550659135.2,286046995.6,N
1550659155.0,286046993.5,Y
1550659155.9,286046993.5,P
1550659175.8,286046995.5,N
1550659195.6,286046997.5,N
1550659215.5,286046993.4,Y
1550659235.3,286046998.4,P
1550659255.1,286047002.1,N
1550659275.9,286047004.3,N
1550659295.7,286047003.2,N
1550659315.5,286047007.1,N
1550659335.4,286047007.0,N
1550659355.2,286047004.9,N
1550659375.1,286047005.5,N
1550659376.0,286047005.5,N
1550659395.8,286047005.2,N
1550659415.6,286047005.9,N
1550659435.5,286047004.9,N
1550659455.3,286047003.3,N
1550659475.1,286047004.2,N
1550659495.9,286047004.9,N
1550659515.7,286047006.2,N
1550659535.6,286047007.3,N
1550659555.4,286047003.2,N
1550659575.2,286047003.6,N
1550659595.1,286047003.0,N
1550659596.0,286047003.0,N
1550659615.8,286047001.6,N
1550659635.7,286047002.2,N
1550659655.5,286046999.9,N
1550659675.3,286047001.0,N
1550659695.2,286047000.9,N
1550659715.9,286046998.1,N
1550659735.7,286046999.8,N
1550659755.6,286047002.8,N
1550659775.4,286047002.3,N
1550659795.3,286047002.2,N
1550659815.1,286047002.3,N
1550659816.0,286047002.3,N
1550659835.8,286047001.6,N
1550659855.7,286047002.8,N
1550659875.5,286046999.8,N
1550659895.3,286047003.6,N
1550659915.2,286047002.3,N
1550659935.0,286046999.9,N
1550659935.9,286046999.9,N
1550659955.8,286047000.8,N
1550659975.6,286047000.1,N
1550659995.4,286047001.0,N
1550660045.3,286047004.4,E
1550660055.2,286047000.8,N
1550660075.1,286046997.3,P
1550660076.0,286046997.3,N
1550660095.8,286046997.8,N
1550660115.6,286046996.1,N
1550660135.5,286046995.0,Y
1550660155.3,286046998.4,P
1550660175.1,286046998.5,P
1550660195.9,286047000.4,N
1550660215.7,286047002.2,N
1550660235.6,286047005.8,Y
1550660255.4,286047004.2,P
1550660275.2,286047006.9,N
1550660295.1,286047004.9,N
1550660296.0,286047004.9,N
1550660315.8,286047003.8,N
1550660335.7,286047001.0,N
1550660355.5,286047000.0,N
1550660375.3,286047000.9,N
1550660395.2,286047000.5,N
